[[{"header":{"parameterUnit":"m.s-1","parameterCategory":1,"la1":30.2991,"la2":30.254,"lo1":-89.0895,"lo2":-89.0444,"dy":0.0017,"dx":0.0017,"nx":28,"ny":28,"refTime":"2024-03-28T09:00:00:Z","depth":0,"parameterNumber":2,"parameterNumberName":"U-component_of_WINDS"},"data":[0,0,0,0,0,0,0,0,0,0,0,0,0,0,0,0,0,0,0,0,0,0,0,0,0,0,0,0,0,0,0,0,0,0,0,0,0,0,0,0,0,0,0,0,0,0,0,0,0,0,0,0,0,0,0,0,0,0,0.0187,0.0188,0,0.0245,0.0245,0.0246,0.0267,0.0267,0.0267,0.0266,0.0326,0.0328,0.033,0,0,0,0,0,0,0,0,0,0,0,0,0,0.0099,0.0101,0.0187,0.0188,0.0189,0.0244,0.0245,0.0246,0.0267,0.0267,0.0266,0.0266,0.0326,0.0328,0.033,0,0,0,0,0,0,0,0,0,0,0,0,0,0.0145,0.0101,0.0187,0.0206,0.0208,0.0244,0.0245,0.0246,0.0267,0.0267,0.0266,0.0266,0.0325,0.0327,0.033,0.0352,0,0,0.0338,0.0339,0,0,0,0,0,0,0,0,0.0143,0.0148,0.0202,0.0205,0.0207,0.0248,0.0236,0.0282,0.0267,0.0245,0.0266,0.0266,0.0301,0.0305,0.0317,0.0355,0.0358,0.0338,0.034,0.0341,0.0342,0,0,0,0,0,0,0,0.0139,0.0146,0.021,0.0203,0.0206,0.0212,0.0219,0.0245,0.0274,0.0247,0.0248,0.0255,0.0302,0.0314,0.0318,0.0358,0.0338,0.0341,0.0342,0.0343,0.0421,0.0421,0,0,0,0,0,0,0.0133,0.0143,0.0208,0.0212,0.0174,0.0214,0.0221,0.0235,0.0273,0.0279,0.0255,0.0255,0.031,0.0315,0.032,0.035,0.0341,0.0344,0.0345,0.042,0.0421,0.0421,0,0,0,0,0,0,0.0131,0.0138,0.0206,0.0178,0.0187,0.0216,0.0232,0.0237,0.0249,0.028,0.0285,0.0262,0.031,0.0317,0.0345,0.0353,0.0345,0.0347,0.042,0.042,0.0421,0.0409,0,0,0,0,0,0,0.0128,0.0138,0.0145,0.0178,0.0189,0.0228,0.0232,0.0238,0.0253,0.0255,0.0288,0.0293,0.031,0.0341,0.0347,0.0356,0.0349,0.0419,0.042,0.0421,0.0409,0.041,0.041,0,0,0,0,0,0.0125,0.014,0.0146,0.0153,0.0199,0.0229,0.0235,0.0254,0.0254,0.0263,0.0283,0.0292,0.0351,0.0343,0.0351,0.0361,0.0419,0.042,0.0421,0.0409,0.0409,0.041,0,0,0,0,0,0,0.0107,0.0144,0.0151,0.0177,0.0199,0.0232,0.0244,0.0253,0.0277,0.0277,0.03,0.0308,0.0334,0.035,0.0341,0.0385,0.0385,0.0388,0.0374,0.0375,0.0375,0.0371,0.0352,0,0,0,0,0,0.0106,0.0126,0.0158,0.0177,0.0189,0.0214,0.0228,0.0241,0.0265,0.0275,0.0297,0.0321,0.0346,0.0361,0.0385,0.0412,0.042,0.0423,0.0423,0.0423,0.0425,0.0443,0.0445,0.0425,0.0425,0.0425,0,0,0.0104,0.0127,0.0138,0.0174,0.0194,0.0215,0.0222,0.0244,0.0261,0.0279,0.0307,0.0324,0.0353,0.0381,0.0394,0.0395,0.0433,0.0424,0.0424,0.0426,0.0444,0.0446,0.0447,0.0425,0.0425,0.0425,0,0,0.0112,0.013,0.015,0.0169,0.0198,0.0215,0.022,0.0252,0.0264,0.0293,0.0307,0.0328,0.0368,0.0389,0.0404,0.0423,0.0432,0.043,0.0432,0.0449,0.045,0.0452,0.0459,0.0462,0.0432,0.0432,0.0432,0,0.0106,0.0138,0.0158,0.018,0.0197,0.0214,0.0235,0.0252,0.0288,0.0299,0.03,0.0353,0.0373,0.0407,0.0412,0.0423,0.0431,0.0426,0.0448,0.045,0.0452,0.0459,0.0462,0.0431,0.0431,0.0431,0.0431,0,0.013,0.0153,0.0165,0.0199,0.0217,0.0238,0.0262,0.0278,0.029,0.0308,0.0338,0.0363,0.0394,0.0403,0.0414,0.0439,0.0439,0.0443,0.0444,0.0453,0.0461,0.0464,0.0431,0.0431,0.0431,0.0431,0,0,0.0127,0.0173,0.0177,0.0194,0.0228,0.0247,0.027,0.0299,0.0313,0.0337,0.0358,0.0393,0.0398,0.0416,0.0431,0.0445,0.046,0.0448,0.045,0.0451,0.0491,0.0488,0.0491,0.0467,0.0468,0.0468,0.0489,0,0.014,0.018,0.02,0.0233,0.0255,0.0273,0.0293,0.0317,0.0335,0.0358,0.0378,0.0403,0.0407,0.0418,0.0433,0.0455,0.0469,0.0454,0.0488,0.0489,0.048,0.0495,0.0491,0.051,0.0492,0.0493,0.0493,0,0.0159,0.0184,0.0219,0.0253,0.0263,0.0281,0.0311,0.0331,0.036,0.0372,0.0393,0.0407,0.0434,0.0433,0.047,0.046,0.0475,0.0488,0.049,0.0494,0.0491,0.05,0.0516,0.0519,0.0498,0.0497,0.0497,0,0.0155,0.0197,0.0224,0.0237,0.0277,0.0289,0.0307,0.0335,0.0352,0.0379,0.0391,0.042,0.0436,0.0459,0.0482,0.0478,0.0518,0.0518,0.053,0.0529,0.0537,0.0536,0.0556,0.0546,0.0546,0.0546,0.0546,0,0.0167,0.0188,0.0222,0.0239,0.0264,0.0287,0.0311,0.033,0.0356,0.0377,0.0395,0.0415,0.0443,0.0468,0.0486,0.0515,0.0522,0.0534,0.0538,0.0532,0.0531,0.0543,0.0543,0.0547,0.0546,0.0546,0.0546,0,0.0166,0.0189,0.022,0.0256,0.0265,0.0282,0.0313,0.0331,0.035,0.0378,0.0386,0.0416,0.0446,0.0471,0.051,0.0522,0.0553,0.0558,0.0543,0.0546,0.0557,0.0556,0.0585,0.0591,0.0576,0.0576,0.0576,0,0.0172,0.0189,0.0227,0.0242,0.0259,0.0284,0.0302,0.0327,0.0345,0.0381,0.0394,0.0425,0.0451,0.0498,0.0525,0.0555,0.0562,0.057,0.0566,0.0561,0.0563,0.0562,0.0565,0.057,0.057,0.057,0.057,0,0.0181,0.0193,0.0218,0.0248,0.0269,0.0293,0.0319,0.0331,0.0361,0.0381,0.0411,0.0432,0.0472,0.0503,0.0537,0.0556,0.0569,0.0572,0.0576,0.057,0.0562,0.0568,0.0545,0.0571,0.0571,0.0571,0.0571,0.0571,0.0185,0.0201,0.0231,0.0259,0.0281,0.0304,0.0323,0.0346,0.0372,0.0406,0.042,0.0452,0.0482,0.0529,0.0549,0.0575,0.0576,0.0583,0.0584,0.0586,0.0586,0.0557,0.0581,0.0581,0.0581,0.0581,0.0581,0,0.0196,0.0216,0.0242,0.0277,0.03,0.031,0.0339,0.0357,0.0385,0.0412,0.0438,0.0475,0.0506,0.0535,0.0568,0.0584,0.0591,0.0592,0.0591,0.0596,0.0581,0.0575,0.0586,0.0586,0.0586,0.0586,0.0586,0.0586,0.0204,0.0233,0.0248,0.0289,0.031,0.0341,0.0357,0.038,0.0402,0.0442,0.0468,0.0487,0.0516,0.0552,0.0582,0.059,0.0602,0.0601,0.0611,0.0597,0.0596,0.0596,0.0589,0.0603,0.0603,0.0623,0.0623,0.0623]},{"header":{"parameterUnit":"m.s-1","parameterCategory":1,"la1":30.2991,"la2":30.254,"lo1":-89.0895,"lo2":-89.0444,"dy":0.0017,"dx":0.0017,"nx":28,"ny":28,"refTime":"2024-03-28T09:00:00:Z","depth":0,"parameterNumber":3,"parameterNumberName":"V-component_of_WINDS"},"data":[0,0,0,0,0,0,0,0,0,0,0,0,0,0,0,0,0,0,0,0,0,0,0,0,0,0,0,0,0,0,0,0,0,0,0,0,0,0,0,0,0,0,0,0,0,0,0,0,0,0,0,0,0,0,0,0,0,0,-4.3388,-4.3389,0,-4.3449,-4.345,-4.345,-4.348,-4.348,-4.348,-4.348,-4.3538,-4.3539,-4.3541,0,0,0,0,0,0,0,0,0,0,0,0,0,-4.3295,-4.3297,-4.3388,-4.3389,-4.339,-4.3449,-4.345,-4.345,-4.348,-4.348,-4.348,-4.348,-4.3537,-4.3539,-4.3541,0,0,0,0,0,0,0,0,0,0,0,0,0,-4.3343,-4.3297,-4.3388,-4.3412,-4.3414,-4.3449,-4.345,-4.3451,-4.348,-4.348,-4.348,-4.348,-4.3537,-4.3539,-4.3541,-4.3555,0,0,-4.3548,-4.3549,0,0,0,0,0,0,0,0,-4.3341,-4.3347,-4.3407,-4.341,-4.3413,-4.3457,-4.3438,-4.3485,-4.348,-4.3455,-4.348,-4.348,-4.3511,-4.3515,-4.3526,-4.3558,-4.356,-4.3548,-4.355,-4.3551,-4.3551,0,0,0,0,0,0,0,-4.3337,-4.3344,-4.3412,-4.3408,-4.3412,-4.3418,-4.3425,-4.3447,-4.3482,-4.3457,-4.346,-4.3467,-4.3512,-4.3524,-4.3528,-4.3561,-4.3548,-4.355,-4.3552,-4.3553,-4.3609,-4.3609,0,0,0,0,0,0,-4.3331,-4.3341,-4.341,-4.3414,-4.3377,-4.342,-4.3428,-4.3443,-4.3482,-4.3488,-4.3467,-4.3468,-4.352,-4.3525,-4.353,-4.355,-4.3551,-4.3553,-4.3554,-4.3608,-4.3609,-4.3609,0,0,0,0,0,0,-4.3329,-4.3336,-4.3408,-4.3378,-4.3388,-4.3422,-4.3438,-4.3444,-4.3456,-4.3489,-4.3495,-4.3472,-4.352,-4.3527,-4.3549,-4.3552,-4.3554,-4.3556,-4.3608,-4.3608,-4.3609,-4.3589,0,0,0,0,0,0,-4.3326,-4.3336,-4.3341,-4.3378,-4.3389,-4.3427,-4.3439,-4.3445,-4.346,-4.3463,-4.3496,-4.3501,-4.3521,-4.3546,-4.3552,-4.3556,-4.3558,-4.3608,-4.3608,-4.3609,-4.359,-4.3589,-4.3588,0,0,0,0,0,-4.3322,-4.3332,-4.3342,-4.335,-4.3398,-4.3427,-4.3433,-4.3456,-4.346,-4.3467,-4.3488,-4.35,-4.3551,-4.3548,-4.3555,-4.3559,-4.3608,-4.3608,-4.3609,-4.359,-4.3589,-4.3588,0,0,0,0,0,0,-4.3292,-4.3337,-4.3348,-4.337,-4.3395,-4.3432,-4.344,-4.3454,-4.3476,-4.3477,-4.3504,-4.3511,-4.3532,-4.3548,-4.3543,-4.3576,-4.3581,-4.3582,-4.3564,-4.3563,-4.3563,-4.3558,-4.356,0,0,0,0,0,-4.3289,-4.331,-4.3347,-4.3363,-4.3375,-4.3405,-4.3419,-4.3435,-4.3461,-4.3471,-4.3494,-4.3517,-4.3539,-4.3552,-4.3573,-4.3592,-4.36,-4.3599,-4.3598,-4.3597,-4.3598,-4.3611,-4.3611,-4.361,-4.361,-4.361,0,0,-4.328,-4.3308,-4.3319,-4.3358,-4.3379,-4.3399,-4.3414,-4.3434,-4.345,-4.3473,-4.3497,-4.3515,-4.3542,-4.3564,-4.3574,-4.3578,-4.3601,-4.3597,-4.3596,-4.3598,-4.3611,-4.3611,-4.3611,-4.361,-4.361,-4.361,0,0,-4.3276,-4.3299,-4.3316,-4.3337,-4.3369,-4.339,-4.3394,-4.343,-4.3443,-4.3468,-4.3486,-4.3505,-4.354,-4.356,-4.3575,-4.3581,-4.3594,-4.3587,-4.3582,-4.3595,-4.3595,-4.3595,-4.3598,-4.3599,-4.3588,-4.3588,-4.3588,0,-4.3261,-4.3294,-4.3322,-4.3342,-4.3359,-4.3384,-4.3402,-4.342,-4.3457,-4.3468,-4.3472,-4.3519,-4.354,-4.3567,-4.3569,-4.3579,-4.3585,-4.3584,-4.3593,-4.3593,-4.3594,-4.3597,-4.3598,-4.3587,-4.3588,-4.3588,-4.3588,0,-4.3275,-4.3298,-4.3307,-4.3345,-4.3363,-4.3382,-4.3412,-4.3426,-4.3442,-4.3462,-4.3487,-4.3513,-4.3541,-4.3549,-4.3563,-4.3578,-4.358,-4.3588,-4.3594,-4.3593,-4.3596,-4.3598,-4.3586,-4.3586,-4.3587,-4.3587,0,0,-4.3252,-4.3307,-4.331,-4.3329,-4.3367,-4.3385,-4.3405,-4.3435,-4.3447,-4.3472,-4.349,-4.3521,-4.353,-4.3546,-4.3563,-4.3574,-4.3579,-4.3581,-4.3582,-4.358,-4.3599,-4.3593,-4.3594,-4.3588,-4.3588,-4.3588,-4.3597,0,-4.3254,-4.3293,-4.3319,-4.3347,-4.3369,-4.3395,-4.3412,-4.3438,-4.3458,-4.3478,-4.35,-4.3522,-4.3531,-4.3542,-4.3553,-4.3576,-4.3583,-4.3576,-4.3604,-4.3605,-4.3597,-4.3596,-4.3589,-4.3596,-4.3599,-4.3599,-4.3599,0,-4.3261,-4.3288,-4.3319,-4.3358,-4.3368,-4.3383,-4.3414,-4.3434,-4.3463,-4.3477,-4.3497,-4.3515,-4.3537,-4.3542,-4.3573,-4.3567,-4.358,-4.3593,-4.3594,-4.3598,-4.3602,-4.36,-4.3599,-4.36,-4.3601,-4.3601,-4.3601,0,-4.3242,-4.3286,-4.3311,-4.3326,-4.3371,-4.3382,-4.3401,-4.3431,-4.3448,-4.3474,-4.3485,-4.3513,-4.3528,-4.3549,-4.3573,-4.3574,-4.3602,-4.3608,-4.3614,-4.3614,-4.3619,-4.3618,-4.362,-4.3627,-4.3627,-4.3627,-4.3627,0,-4.3241,-4.3259,-4.3304,-4.3319,-4.334,-4.3371,-4.3391,-4.3412,-4.3439,-4.3458,-4.3481,-4.3499,-4.353,-4.3552,-4.3571,-4.3595,-4.3601,-4.3612,-4.3617,-4.3611,-4.3609,-4.362,-4.362,-4.3627,-4.3627,-4.3627,-4.3627,0,-4.3223,-4.3254,-4.3283,-4.3325,-4.3336,-4.335,-4.3385,-4.3401,-4.3423,-4.3448,-4.3455,-4.3489,-4.3516,-4.3544,-4.3578,-4.3592,-4.3615,-4.3621,-4.3605,-4.3608,-4.3613,-4.3612,-4.3622,-4.3625,-4.3629,-4.3629,-4.3629,0,-4.3221,-4.3236,-4.3281,-4.3297,-4.3316,-4.3341,-4.3359,-4.339,-4.3408,-4.3444,-4.3455,-4.3485,-4.3509,-4.3551,-4.3578,-4.3605,-4.3613,-4.3615,-4.3617,-4.3611,-4.3614,-4.3613,-4.3615,-4.3613,-4.3613,-4.3613,-4.3613,0,-4.3214,-4.3229,-4.3255,-4.3288,-4.331,-4.3336,-4.3363,-4.3374,-4.341,-4.3429,-4.3458,-4.3477,-4.3515,-4.3544,-4.3575,-4.3594,-4.3609,-4.3612,-4.3615,-4.3608,-4.3599,-4.3605,-4.3603,-4.3612,-4.3612,-4.3612,-4.3612,-4.3612,-4.3204,-4.3219,-4.3254,-4.3283,-4.3308,-4.3333,-4.3351,-4.3377,-4.3402,-4.3437,-4.3453,-4.3482,-4.3513,-4.3557,-4.3576,-4.3599,-4.3603,-4.3607,-4.3608,-4.3608,-4.3607,-4.3596,-4.3604,-4.3604,-4.3604,-4.3605,-4.3605,0,-4.3199,-4.3223,-4.325,-4.3289,-4.3312,-4.3327,-4.3359,-4.3376,-4.3403,-4.3431,-4.3456,-4.349,-4.3519,-4.3549,-4.3579,-4.3592,-4.36,-4.3599,-4.3598,-4.3603,-4.3601,-4.3596,-4.3592,-4.3592,-4.3592,-4.3592,-4.3592,-4.3592,-4.3199,-4.3227,-4.3246,-4.3287,-4.3311,-4.3341,-4.3358,-4.3382,-4.3405,-4.3443,-4.3467,-4.3488,-4.3518,-4.3551,-4.3578,-4.3586,-4.3596,-4.3593,-4.3603,-4.3601,-4.3602,-4.3603,-4.3599,-4.3595,-4.3595,-4.3603,-4.3603,-4.3603]}]]